EN

Hourly Weather Barlomino

Today, 21 January, Thursday

Time Temperature Precipitation Wind Pressure Humidity
00:00 +1°C° 0 mm 5 mps 739 mmHg 91%
01:00 +1°C° 0 mm 5 mps 738 mmHg 87%
02:00 0°C° 0 mm 5 mps 738 mmHg 86%
03:00 0°C° 0 mm 5 mps 738 mmHg 86%
04:00 0°C° 0 mm 5 mps 738 mmHg 85%
05:00 -1°C° 0 mm 6 mps 738 mmHg 84%
06:00 -1°C° 0 mm 6 mps 738 mmHg 82%
07:00 +1°C° 0 mm 6 mps 737 mmHg 80%
08:00 0°C° 0 mm 7 mps 737 mmHg 78%
09:00 0°C° 0 mm 7 mps 737 mmHg 76%
10:00 +1°C° 0 mm 8 mps 737 mmHg 74%
11:00 +1°C° 0 mm 8 mps 737 mmHg 74%
12:00 +1°C° 0 mm 8 mps 737 mmHg 74%
13:00 +2°C° 0 mm 8 mps 737 mmHg 74%
14:00 +2°C° 0 mm 8 mps 737 mmHg 77%
15:00 +2°C° 0 mm 7 mps 737 mmHg 79%
16:00 +2°C° 0 mm 7 mps 737 mmHg 81%
17:00 +2°C° 0 mm 7 mps 737 mmHg 82%
18:00 +2°C° 0 mm 7 mps 737 mmHg 82%
19:00 +2°C° 0 mm 7 mps 737 mmHg 83%
20:00 +1°C° 0 mm 6 mps 737 mmHg 84%
21:00 +1°C° 0 mm 6 mps 737 mmHg 85%
22:00 +1°C° 0 mm 6 mps 737 mmHg 86%
23:00 +1°C° 0 mm 6 mps 737 mmHg 88%

Tomorrow, 22 January, Friday

Time Temperature Precipitation Wind Pressure Humidity
00:00 -1°C° 0 mm 6 mps 737 mmHg 89%
01:00 -1°C° 0 mm 6 mps 736 mmHg 90%
02:00 -1°C° 0 mm 6 mps 736 mmHg 89%
03:00 +1°C° 0 mm 6 mps 735 mmHg 89%
04:00 +1°C° 0 mm 6 mps 735 mmHg 88%
05:00 +1°C° 0 mm 6 mps 735 mmHg 87%
06:00 0°C° 0 mm 7 mps 735 mmHg 86%
07:00 +2°C° 0 mm 7 mps 734 mmHg 86%
08:00 +2°C° 0 mm 7 mps 734 mmHg 84%
09:00 +2°C° 0 mm 7 mps 734 mmHg 82%
10:00 +2°C° 0 mm 7 mps 733 mmHg 80%
11:00 +2°C° 0 mm 7 mps 733 mmHg 82%
12:00 +2°C° 0 mm 7 mps 733 mmHg 85%
13:00 +2°C° 0 mm 6 mps 732 mmHg 87%
14:00 +1°C° 0 mm 6 mps 732 mmHg 88%
15:00 +1°C° 0 mm 6 mps 732 mmHg 89%
16:00 +1°C° 0 mm 5 mps 732 mmHg 90%
17:00 +1°C° 0 mm 5 mps 733 mmHg 91%
18:00 +1°C° 0 mm 4 mps 733 mmHg 92%
19:00 +1°C° 0 mm 4 mps 734 mmHg 93%
20:00 +1°C° 0 mm 3 mps 734 mmHg 93%
21:00 +1°C° 0 mm 3 mps 734 mmHg 94%
22:00 +1°C° 0 mm 2 mps 735 mmHg 94%
23:00 +1°C° 0 mm 2 mps 735 mmHg 93%

Day after tomorrow, 23 January, Saturday

Time Temperature Precipitation Wind Pressure Humidity
00:00 0°C° 0 mm 3 mps 736 mmHg 93%
01:00 -1°C° 0 mm 3 mps 736 mmHg 92%
02:00 -1°C° 0 mm 2 mps 736 mmHg 91%
03:00 -1°C° 0 mm 2 mps 737 mmHg 91%
04:00 -1°C° 0 mm 2 mps 737 mmHg 90%
05:00 +1°C° 0 mm 1 mps 737 mmHg 88%
06:00 +1°C° 0 mm 1 mps 737 mmHg 86%
07:00 +1°C° 0 mm 1 mps 737 mmHg 85%
08:00 +2°C° 0 mm 1 mps 737 mmHg 84%
09:00 +1°C° 0 mm 2 mps 737 mmHg 84%
10:00 +1°C° 0 mm 3 mps 737 mmHg 83%
11:00 +1°C° 0.3 mm 3 mps 736 mmHg 87%
12:00 0°C° 0.3 mm 4 mps 736 mmHg 91%
13:00 0°C° 0.3 mm 5 mps 735 mmHg 95%
14:00 0°C° 1.6 mm 5 mps 734 mmHg 95%
15:00 -1°C° 1.6 mm 6 mps 733 mmHg 96%
16:00 -1°C° 1.6 mm 6 mps 732 mmHg 97%
17:00 0°C° 0.5 mm 5 mps 732 mmHg 97%
18:00 0°C° 0.5 mm 5 mps 731 mmHg 97%
19:00 0°C° 0.5 mm 4 mps 731 mmHg 97%
20:00 0°C° 0.1 mm 4 mps 731 mmHg 96%
21:00 0°C° 0.1 mm 4 mps 730 mmHg 95%
22:00 +1°C° 0.1 mm 4 mps 730 mmHg 94%
23:00 0°C° 0 mm 4 mps 730 mmHg 94%

24 January, Sunday

Time Temperature Precipitation Wind Pressure Humidity
00:00 0°C° 0 mm 5 mps 730 mmHg 94%
01:00 0°C° 0 mm 5 mps 731 mmHg 93%
02:00 0°C° 0 mm 5 mps 731 mmHg 94%
03:00 0°C° 0 mm 4 mps 731 mmHg 95%
04:00 0°C° 0 mm 4 mps 731 mmHg 96%
05:00 0°C° 0 mm 4 mps 732 mmHg 96%
06:00 0°C° 0 mm 4 mps 732 mmHg 96%
07:00 0°C° 0 mm 5 mps 733 mmHg 96%
08:00 0°C° 0.1 mm 5 mps 733 mmHg 95%
09:00 0°C° 0.1 mm 5 mps 734 mmHg 94%
10:00 0°C° 0.1 mm 5 mps 734 mmHg 94%
11:00 0°C° 0.1 mm 5 mps 734 mmHg 94%
12:00 -1°C° 0.1 mm 5 mps 734 mmHg 95%
13:00 -1°C° 0.1 mm 5 mps 734 mmHg 96%
14:00 -1°C° 0 mm 5 mps 734 mmHg 96%
15:00 -1°C° 0 mm 4 mps 735 mmHg 95%
16:00 -1°C° 0 mm 4 mps 735 mmHg 95%
17:00 -1°C° 0 mm 4 mps 735 mmHg 96%
18:00 -1°C° 0 mm 4 mps 735 mmHg 96%
19:00 0°C° 0 mm 3 mps 735 mmHg 96%
20:00 -1°C° 0.1 mm 4 mps 735 mmHg 96%
21:00 -1°C° 0.1 mm 4 mps 735 mmHg 96%
22:00 -1°C° 0.1 mm 4 mps 735 mmHg 96%
23:00 -1°C° 0 mm 4 mps 735 mmHg 93%

25 January, Monday

Time Temperature Precipitation Wind Pressure Humidity
00:00 -2°C° 0 mm 4 mps 735 mmHg 91%
01:00 -2°C° 0 mm 4 mps 736 mmHg 88%
02:00 -2°C° 0 mm 4 mps 736 mmHg 89%
03:00 -2°C° 0 mm 4 mps 736 mmHg 89%
04:00 -2°C° 0 mm 4 mps 736 mmHg 89%
05:00 -2°C° 0 mm 4 mps 736 mmHg 89%
06:00 -2°C° 0 mm 4 mps 736 mmHg 89%
07:00 -2°C° 0 mm 4 mps 737 mmHg 89%
08:00 -2°C° 0 mm 4 mps 737 mmHg 89%
09:00 -2°C° 0 mm 4 mps 738 mmHg 89%
10:00 -2°C° 0 mm 4 mps 738 mmHg 89%
11:00 -2°C° 0 mm 4 mps 738 mmHg 87%
12:00 -1°C° 0 mm 5 mps 738 mmHg 86%
13:00 -1°C° 0 mm 5 mps 739 mmHg 85%
14:00 -1°C° 0.1 mm 5 mps 739 mmHg 85%
15:00 -2°C° 0.1 mm 5 mps 739 mmHg 85%
16:00 -2°C° 0.1 mm 5 mps 740 mmHg 86%
17:00 -2°C° 0.1 mm 5 mps 740 mmHg 86%
18:00 -2°C° 0.1 mm 5 mps 740 mmHg 86%
19:00 -4°C° 0.1 mm 5 mps 740 mmHg 86%
20:00 -4°C° 0 mm 5 mps 740 mmHg 87%
21:00 -4°C° 0 mm 5 mps 741 mmHg 88%
22:00 -2°C° 0 mm 4 mps 741 mmHg 89%
23:00 -2°C° 0 mm 4 mps 741 mmHg 89%

26 January, Tuesday

Time Temperature Precipitation Wind Pressure Humidity
00:00 -2°C° 0 mm 4 mps 741 mmHg 89%
01:00 -1°C° 0 mm 3 mps 741 mmHg 89%
02:00 -1°C° 0 mm 3 mps 741 mmHg 90%
03:00 -2°C° 0 mm 3 mps 741 mmHg 90%
04:00 -2°C° 0 mm 3 mps 741 mmHg 91%
05:00 -2°C° 0 mm 3 mps 742 mmHg 91%
06:00 -3°C° 0 mm 4 mps 742 mmHg 91%
07:00 -2°C° 0 mm 4 mps 742 mmHg 92%
08:00 -2°C° 0.1 mm 4 mps 742 mmHg 91%
09:00 -2°C° 0.1 mm 4 mps 742 mmHg 90%
10:00 -1°C° 0.1 mm 4 mps 742 mmHg 88%
11:00 -1°C° 0.1 mm 5 mps 742 mmHg 85%
12:00 0°C° 0.1 mm 5 mps 743 mmHg 82%
13:00 0°C° 0.1 mm 5 mps 743 mmHg 78%
14:00 0°C° 0 mm 5 mps 743 mmHg 81%
15:00 -1°C° 0 mm 5 mps 743 mmHg 83%
16:00 -1°C° 0 mm 5 mps 743 mmHg 85%
17:00 -2°C° 0.1 mm 6 mps 743 mmHg 83%
18:00 -2°C° 0.1 mm 6 mps 743 mmHg 81%
19:00 -2°C° 0.1 mm 7 mps 743 mmHg 80%
20:00 -2°C° 0 mm 7 mps 743 mmHg 80%
21:00 -2°C° 0 mm 6 mps 743 mmHg 80%
22:00 -2°C° 0 mm 6 mps 743 mmHg 80%
23:00 -2°C° 0 mm 6 mps 743 mmHg 81%
Show more

We Need Your Consent

Meteoprog and our Service Providers may store and access personal data such as cookies, device identifiers or other similar technologies on your device and process such data to personalise content and ads, as well as provide social media features and to analyse the traffic.

  • Store and/or access information on your device

    Cookies, device identifiers or other information can be stored or accessed on your device for the purposes indicated above.

  • Personalised ads and content, ad and content measurement, audience insights, and products development

    Ads and content can be personalised based on a profile. More data can be added to better personalise ads and content. Ad and content performance can be measured. Insights about the audience who saw the ads and content can be derived. Such data can be used to develop or improve user’s experience, systems and software.

By clicking ‘I Agree’ you will allow the use of indicated cookies, device identifiers, web beacons or other similar technologies. Your settings can be changed in the browser on your device.

For certain purposes, legitimate interests may be relied on, rather than consent. You can read more about this in our Privacy and Cookie Policy.